Date String (YYYY-MM-DD hh:mm:ss) UTC,Instrument flags,absolute air pressure of the measurement (hPa),sample flow rate (lpm),inlet stack bypass flow (lpm),air temperature of the measurement (°C),ambient temperature measured by the external sensor (°C),aerosol sample conditioner tube jacket temperature (°C),OPC LED temperature (°C),internal box temperature (°C),relative humidity of the measurement (%),span deviation,mass concentration of particles derived from Lorenz-Mie calculation of OPC scattering (μg/m³),mass concentration of particles derived from Lorenz-Mie calculation of OPC scattering (μg/m³),mass concentration of particles derived from Lorenz-Mie calculation of OPC scattering (μg/m³)
DateTimeUTC,F1_M11,P_M11,Q1_M11,Q2_M11,T1_M11,T2_M11,T3_M11,T4_M11,T5_M11,U1_M11,ZSPAN_M11,X0_M11,X2_M11,X1_M11
2023-06-14 03:00:00,SystemResetWarning,0828.7,5.00,000.00,030.0,028.6,000.0,038.4,031.6,25.2,0000.0,0004.32,0002.28,0001.84
2023-06-14 03:01:00,SystemResetWarning,0828.7,5.00,000.00,030.0,028.6,000.0,038.4,031.6,25.8,0000.0,0004.89,0002.31,0001.85
2023-06-14 03:02:00,SystemResetWarning,0828.6,5.01,000.00,030.0,028.6,000.0,038.4,031.6,26.0,0000.0,0005.06,0002.39,0001.87
2023-06-14 03:03:00,SystemResetWarning,0828.6,5.01,000.00,030.0,028.7,000.0,038.5,031.6,25.9,0000.0,0005.14,0002.40,0001.89
2023-06-14 03:04:00,SystemResetWarning,0828.7,5.01,000.00,030.0,028.7,000.0,038.5,031.7,25.6,0000.0,0005.19,0002.42,0001.89
2023-06-14 03:05:00,SystemResetWarning,0828.7,5.01,000.00,030.0,028.7,000.0,038.5,031.7,25.1,0000.0,0005.51,0002.47,0001.89
2023-06-14 03:06:00,SystemResetWarning,0828.6,5.00,000.00,030.1,028.7,000.0,038.5,031.7,24.9,0000.0,0005.44,0002.42,0001.89
2023-06-14 03:07:00,SystemResetWarning,0828.7,4.99,000.00,030.1,028.7,000.0,038.5,031.7,24.7,0000.0,0005.46,0002.39,0001.87
2023-06-14 03:08:00,SystemResetWarning,0828.7,4.99,000.00,030.1,028.7,000.0,038.5,031.7,24.6,0000.0,0005.51,0002.36,0001.83
2023-06-14 03:09:00,SystemResetWarning,0828.7,5.00,000.00,030.1,028.7,000.0,038.6,031.7,24.4,0000.0,0005.38,0002.29,0001.80
2023-06-14 03:10:00,SystemResetWarning,0828.7,5.00,000.00,030.1,028.6,000.0,038.6,031.7,24.5,0000.0,0005.97,0002.30,0001.78
2023-06-14 03:11:00,SystemResetWarning,0828.7,5.00,000.00,030.1,026.6,000.0,038.5,031.7,25.0,0000.0,0005.46,0002.31,0001.78
2023-06-14 03:12:00,SystemResetWarning,0828.7,5.00,000.00,030.1,025.0,000.0,038.5,031.6,25.4,0000.0,0004.99,0002.25,0001.77
2023-06-14 03:13:00,SystemResetWarning,0828.7,5.01,000.00,030.0,024.8,000.0,038.4,031.2,25.8,0000.0,0005.00,0002.20,0001.76
2023-06-14 03:14:00,SystemResetWarning,0828.7,5.01,000.00,029.9,025.2,000.0,038.4,031.0,25.9,0000.0,0005.89,0002.19,0001.75
2023-06-14 03:15:00,SystemResetWarning,0828.7,5.00,000.00,029.8,025.6,000.0,038.4,031.0,26.3,0000.0,0005.92,0002.20,0001.75
2023-06-14 03:16:00,SystemResetWarning,0828.7,5.00,000.00,029.7,026.0,000.0,038.4,031.0,26.4,0000.0,0005.71,0002.20,0001.76
2023-06-14 03:17:00,SystemResetWarning,0828.7,4.98,000.00,029.7,026.5,000.0,038.4,031.1,26.8,0000.0,0005.66,0002.22,0001.76
2023-06-14 03:18:00,SystemResetWarning,0828.7,5.00,000.00,029.7,026.8,000.0,038.4,031.1,27.0,0000.0,0005.67,0002.27,0001.77
2023-06-14 03:19:00,SystemResetWarning,0828.7,5.01,000.00,029.7,027.1,000.0,038.3,031.1,27.0,0000.0,0006.51,0002.30,0001.78
2023-06-14 03:20:00,SystemResetWarning,0828.7,5.01,000.00,029.7,027.3,000.0,038.3,031.2,27.1,0000.0,0007.87,0002.32,0001.77
2023-06-14 03:21:00,SystemResetWarning,0828.7,5.00,000.00,029.7,027.5,000.0,038.3,031.2,27.3,0000.0,0007.61,0002.34,0001.78
2023-06-14 03:22:00,SystemResetWarning,0828.8,5.00,000.00,029.7,027.7,000.0,038.3,031.2,27.0,0000.0,0007.48,0002.38,0001.79
2023-06-14 03:23:00,SystemResetWarning,0828.8,5.00,000.00,029.7,027.8,000.0,038.3,031.2,26.9,0000.0,0007.42,0002.40,0001.79
2023-06-14 03:24:00,SystemResetWarning,0828.8,5.00,000.00,029.7,027.9,000.0,038.3,031.3,26.7,0000.0,0007.35,0002.40,0001.80
2023-06-14 03:25:00,SystemResetWarning,0828.8,5.00,000.00,029.7,028.0,000.0,038.3,031.3,26.5,0000.0,0006.58,0002.41,0001.82
2023-06-14 03:26:00,SystemResetWarning,0828.7,5.00,000.00,029.7,028.1,000.0,038.3,031.3,27.0,0000.0,0006.50,0002.42,0001.81
2023-06-14 03:27:00,SystemResetWarning,0828.8,5.00,000.00,029.8,028.2,000.0,038.3,031.4,27.1,0000.0,0006.87,0002.45,0001.82
2023-06-14 03:28:00,SystemResetWarning,0828.7,5.00,000.00,029.8,028.2,000.0,038.3,031.4,27.3,0000.0,0006.88,0002.46,0001.83
2023-06-14 03:29:00,SystemResetWarning,0828.8,5.00,000.00,029.8,028.3,000.0,038.3,031.4,27.4,0000.0,0006.76,0002.42,0001.83
2023-06-14 03:30:00,SystemResetWarning,0828.7,5.00,000.00,029.8,028.3,000.0,038.3,031.4,27.5,0000.0,0006.10,0002.42,0001.83
2023-06-14 03:31:00,SystemResetWarning,0828.7,5.00,000.00,029.8,028.3,000.0,038.3,031.4,27.2,0000.0,0004.73,0002.47,0001.85
2023-06-14 03:32:00,SystemResetWarning,0828.7,5.00,000.00,029.8,028.4,000.0,038.3,031.4,26.9,0000.0,0004.72,0002.47,0001.85
2023-06-14 03:33:00,SystemResetWarning,0828.7,4.99,000.00,029.8,028.4,000.0,038.3,031.5,26.7,0000.0,0004.68,0002.44,0001.85
2023-06-14 03:34:00,SystemResetWarning,0828.7,4.99,000.00,029.9,028.4,000.0,038.4,031.5,26.7,0000.0,0004.96,0002.45,0001.86
2023-06-14 03:35:00,SystemResetWarning,0828.7,5.00,000.00,029.9,028.4,000.0,038.4,031.5,26.5,0000.0,0005.60,0002.49,0001.87
2023-06-14 03:36:00,SystemResetWarning,0828.8,5.00,000.00,029.9,028.4,000.0,038.4,031.5,26.5,0000.0,0005.80,0002.53,0001.87
2023-06-14 03:37:00,SystemResetWarning,0828.8,4.99,000.00,029.9,028.4,000.0,038.4,031.5,26.6,0000.0,0005.89,0002.50,0001.88
2023-06-14 03:38:00,SystemResetWarning,0828.7,4.99,000.00,029.9,028.5,000.0,038.4,031.5,26.6,0000.0,0005.40,0002.43,0001.87
2023-06-14 03:39:00,SystemResetWarning,0828.8,5.00,000.00,029.9,028.5,000.0,038.4,031.5,26.6,0000.0,0005.37,0002.41,0001.88
2023-06-14 03:40:00,SystemResetWarning,0828.8,5.00,000.00,029.9,028.5,000.0,038.4,031.5,26.8,0000.0,0005.40,0002.40,0001.88
2023-06-14 03:41:00,SystemResetWarning,0828.8,5.00,000.00,029.9,028.5,000.0,038.4,031.5,27.0,0000.0,0005.77,0002.40,0001.89
2023-06-14 03:42:00,SystemResetWarning,0828.8,5.00,000.00,029.9,028.5,000.0,038.4,031.5,26.9,0000.0,0005.45,0002.40,0001.89
2023-06-14 03:43:00,SystemResetWarning,0828.8,5.00,000.00,029.9,028.5,000.0,038.5,031.5,27.0,0000.0,0005.02,0002.35,0001.89
2023-06-14 03:44:00,SystemResetWarning,0828.8,5.00,000.00,030.0,028.5,000.0,038.5,031.5,26.9,0000.0,0005.09,0002.35,0001.89
2023-06-14 03:45:00,SystemResetWarning,0828.9,5.00,000.00,030.0,028.5,000.0,038.5,031.6,27.0,0000.0,0005.13,0002.35,0001.87
2023-06-14 03:46:00,SystemResetWarning,0828.9,5.00,000.00,030.0,028.5,000.0,038.5,031.6,26.9,0000.0,0005.09,0002.33,0001.86
2023-06-14 03:47:00,SystemResetWarning,0828.9,5.00,000.00,030.0,028.5,000.0,038.5,031.6,26.7,0000.0,0005.05,0002.32,0001.86
2023-06-14 03:48:00,SystemResetWarning,0829.0,5.00,000.00,030.0,028.6,000.0,038.5,031.5,26.7,0000.0,0005.02,0002.33,0001.86
2023-06-14 03:49:00,SystemResetWarning,0829.0,5.01,000.00,030.0,028.6,000.0,038.5,031.5,26.7,0000.0,0005.24,0002.36,0001.86
2023-06-14 03:50:00,SystemResetWarning,0829.0,5.00,000.00,030.0,028.6,000.0,038.5,031.5,26.7,0000.0,0005.38,0002.38,0001.86
2023-06-14 03:51:00,SystemResetWarning,0828.9,4.99,000.00,030.0,028.6,000.0,038.5,031.6,26.6,0000.0,0005.43,0002.39,0001.87
2023-06-14 03:52:00,SystemResetWarning,0829.0,5.00,000.00,030.0,028.6,000.0,038.5,031.6,26.5,0000.0,0004.98,0002.38,0001.87
2023-06-14 03:53:00,SystemResetWarning,0829.0,5.00,000.00,030.0,028.6,000.0,038.6,031.6,26.5,0000.0,0004.96,0002.35,0001.87
2023-06-14 03:54:00,SystemResetWarning,0829.0,5.00,000.00,030.0,028.6,000.0,038.6,031.6,26.4,0000.0,0005.07,0002.39,0001.88
2023-06-14 03:55:00,SystemResetWarning,0829.0,4.99,000.00,030.0,028.6,000.0,038.6,031.6,26.4,0000.0,0004.93,0002.38,0001.87
2023-06-14 03:56:00,SystemResetWarning,0829.1,4.99,000.00,030.0,028.6,000.0,038.6,031.6,26.3,0000.0,0004.75,0002.40,0001.88
2023-06-14 03:57:00,SystemResetWarning,0829.1,5.00,000.00,030.0,028.6,000.0,038.6,031.6,26.4,0000.0,0004.29,0002.43,0001.88
2023-06-14 03:58:00,SystemResetWarning,0829.1,5.00,000.00,030.1,028.6,000.0,038.6,031.6,26.4,0000.0,0004.16,0002.45,0001.87
2023-06-14 03:59:00,SystemResetWarning,0829.1,5.00,000.00,030.1,028.6,000.0,038.6,031.6,26.2,0000.0,0004.04,0002.46,0001.88
